Time,TemperatureF,DewpointF,PressureIn,WindDirection,WindDirectionDegrees,WindSpeedMPH,WindSpeedGustMPH,Humidity,HourlyPrecipIn,Conditions,Clouds,dailyrainin,SoftwareType,DateUTC
2013-07-18 00:00:00,66.6,59.4,29.81,ENE,78,2.0,9.0,78,0.00,,,0.00,VWS V14.01,2013-07-18 05:00:00,
2013-07-18 00:01:00,66.6,59.4,29.81,ENE,78,2.0,2.0,78,0.00,,,0.00,VWS V14.01,2013-07-18 05:01:00,
2013-07-18 00:06:00,66.6,59.4,29.80,ENE,73,1.0,6.0,78,0.00,,,0.00,VWS V14.01,2013-07-18 05:06:00,
2013-07-18 00:11:00,66.6,59.4,29.80,East,83,3.0,8.0,78,0.00,,,0.00,VWS V14.01,2013-07-18 05:11:00,
2013-07-18 00:15:00,66.6,59.8,29.80,East,91,5.0,8.0,79,0.00,,,0.00,VWS V14.01,2013-07-18 05:15:00,
2013-07-18 00:16:00,66.5,59.3,29.80,ESE,112,3.0,5.0,78,0.00,,,0.00,VWS V14.01,2013-07-18 05:16:00,
2013-07-18 00:21:00,66.5,59.7,29.79,East,82,3.0,6.0,79,0.00,,,0.00,VWS V14.01,2013-07-18 05:21:00,
2013-07-18 00:26:00,66.4,59.6,29.79,East,91,7.0,8.0,79,0.00,,,0.00,VWS V14.01,2013-07-18 05:26:00,
2013-07-18 00:30:00,66.4,59.6,29.79,East,99,7.0,10.0,79,0.00,,,0.00,VWS V14.01,2013-07-18 05:30:00,
2013-07-18 00:31:00,66.4,59.6,29.79,East,101,1.0,7.0,79,0.00,,,0.00,VWS V14.01,2013-07-18 05:31:00,
2013-07-18 00:36:00,66.4,59.6,29.79,SE,125,4.0,8.0,79,0.00,,,0.00,VWS V14.01,2013-07-18 05:36:00,
2013-07-18 00:41:00,66.3,59.8,29.79,ENE,64,6.0,8.0,80,0.00,,,0.00,VWS V14.01,2013-07-18 05:41:00,
2013-07-18 00:45:00,66.3,59.8,29.78,East,98,5.0,8.0,80,0.00,,,0.00,VWS V14.01,2013-07-18 05:45:00,
2013-07-18 00:46:00,66.3,59.8,29.78,NE,46,5.0,5.0,80,0.00,,,0.00,VWS V14.01,2013-07-18 05:46:00,
2013-07-18 00:51:00,66.3,59.8,29.78,NE,43,2.0,5.0,80,0.00,,,0.00,VWS V14.01,2013-07-18 05:51:00,
2013-07-18 00:56:00,66.2,59.8,29.78,NE,42,2.0,6.0,80,0.00,,,0.00,VWS V14.01,2013-07-18 05:56:00,
2013-07-18 01:00:00,66.2,59.8,29.78,ENE,78,1.0,6.0,80,0.00,,,0.00,VWS V14.01,2013-07-18 06:00:00,
2013-07-18 01:01:00,66.2,60.1,29.78,ENE,68,2.0,2.0,81,0.00,,,0.00,VWS V14.01,2013-07-18 06:01:00,
2013-07-18 01:06:00,66.2,60.1,29.78,NE,52,1.0,6.0,81,0.00,,,0.00,VWS V14.01,2013-07-18 06:06:00,
2013-07-18 01:11:00,66.2,60.1,29.77,ENE,78,3.0,6.0,81,0.00,,,0.00,VWS V14.01,2013-07-18 06:11:00,
2013-07-18 01:15:00,66.2,60.1,29.77,ENE,73,4.0,6.0,81,0.00,,,0.00,VWS V14.01,2013-07-18 06:15:00,
2013-07-18 01:16:00,66.2,60.1,29.76,ESE,116,5.0,7.0,81,0.00,,,0.00,VWS V14.01,2013-07-18 06:16:00,
2013-07-18 01:21:00,66.3,59.8,29.76,ESE,114,6.0,9.0,80,0.00,,,0.00,VWS V14.01,2013-07-18 06:21:00,
2013-07-18 01:26:00,66.4,59.9,29.76,ENE,78,3.0,9.0,80,0.00,,,0.00,VWS V14.01,2013-07-18 06:26:00,
2013-07-18 01:30:00,66.4,59.9,29.75,East,96,3.0,9.0,80,0.00,,,0.00,VWS V14.01,2013-07-18 06:30:00,
2013-07-18 01:31:00,66.5,60.0,29.75,East,88,3.0,4.0,80,0.00,,,0.00,VWS V14.01,2013-07-18 06:31:00,
2013-07-18 01:36:00,66.5,60.0,29.75,NE,44,3.0,7.0,80,0.00,,,0.00,VWS V14.01,2013-07-18 06:36:00,
2013-07-18 01:41:00,66.5,60.0,29.75,NE,47,3.0,7.0,80,0.00,,,0.00,VWS V14.01,2013-07-18 06:41:00,
2013-07-18 01:45:00,66.4,59.9,29.75,NE,44,2.0,7.0,80,0.00,,,0.00,VWS V14.01,2013-07-18 06:45:00,
2013-07-18 01:46:00,66.4,59.9,29.75,NE,36,3.0,4.0,80,0.00,,,0.00,VWS V14.01,2013-07-18 06:46:00,
2013-07-18 01:51:00,66.4,59.9,29.75,ENE,73,1.0,8.0,80,0.00,,,0.00,VWS V14.01,2013-07-18 06:51:00,
2013-07-18 01:56:00,66.3,60.2,29.74,NE,49,2.0,8.0,81,0.00,,,0.00,VWS V14.01,2013-07-18 06:56:00,
2013-07-18 02:00:00,66.2,60.1,29.74,ENE,73,1.0,8.0,81,0.00,,,0.00,VWS V14.01,2013-07-18 07:00:00,
2013-07-18 02:01:00,66.2,60.1,29.74,ENE,78,1.0,2.0,81,0.00,,,0.00,VWS V14.01,2013-07-18 07:01:00,
2013-07-18 02:06:00,66.1,60.0,29.74,ENE,78,1.0,5.0,81,0.00,,,0.00,VWS V14.01,2013-07-18 07:06:00,
2013-07-18 02:11:00,66.1,60.0,29.73,ENE,68,2.0,5.0,81,0.00,,,0.00,VWS V14.01,2013-07-18 07:11:00,
2013-07-18 02:15:00,66.1,60.0,29.73,NE,55,1.0,5.0,81,0.00,,,0.00,VWS V14.01,2013-07-18 07:15:00,
2013-07-18 02:16:00,66.1,60.0,29.73,NE,50,1.0,3.0,81,0.00,,,0.00,VWS V14.01,2013-07-18 07:16:00,
2013-07-18 02:21:00,65.9,59.8,29.73,NE,45,2.0,4.0,81,0.00,,,0.00,VWS V14.01,2013-07-18 07:21:00,
2013-07-18 02:26:00,65.8,60.1,29.72,ENE,78,3.0,6.0,82,0.00,,,0.00,VWS V14.01,2013-07-18 07:26:00,
2013-07-18 02:30:00,65.7,60.0,29.72,East,100,1.0,6.0,82,0.00,,,0.00,VWS V14.01,2013-07-18 07:30:00,
2013-07-18 02:31:00,65.7,60.0,29.72,ENE,78,1.0,3.0,82,0.00,,,0.00,VWS V14.01,2013-07-18 07:31:00,
2013-07-18 02:36:00,65.6,59.9,29.72,ENE,63,2.0,4.0,82,0.00,,,0.00,VWS V14.01,2013-07-18 07:36:00,
2013-07-18 02:41:00,65.6,60.2,29.72,NE,36,2.0,5.0,83,0.00,,,0.00,VWS V14.01,2013-07-18 07:41:00,
2013-07-18 02:45:00,65.4,60.0,29.72,NNE,21,2.0,5.0,83,0.00,,,0.00,VWS V14.01,2013-07-18 07:45:00,
2013-07-18 02:46:00,65.3,59.9,29.72,NNW,341,2.0,3.0,83,0.00,,,0.00,VWS V14.01,2013-07-18 07:46:00,
2013-07-18 02:51:00,65.0,60.0,29.72,North,2,1.0,3.0,84,0.00,,,0.00,VWS V14.01,2013-07-18 07:51:00,
2013-07-18 02:56:00,64.7,59.7,29.71,North,6,1.0,3.0,84,0.00,,,0.00,VWS V14.01,2013-07-18 07:56:00,
2013-07-18 03:00:00,64.4,59.7,29.71,NNE,29,2.0,3.0,85,0.00,,,0.00,VWS V14.01,2013-07-18 08:00:00,
2013-07-18 03:01:00,64.4,59.7,29.71,NNE,28,1.0,2.0,85,0.00,,,0.00,VWS V14.01,2013-07-18 08:01:00,
2013-07-18 03:06:00,64.1,59.4,29.72,North,11,1.0,3.0,85,0.00,,,0.00,VWS V14.01,2013-07-18 08:06:00,
2013-07-18 03:11:00,63.8,59.4,29.71,North,1,1.0,3.0,86,0.00,,,0.00,VWS V14.01,2013-07-18 08:11:00,
2013-07-18 03:15:00,63.7,59.3,29.71,North,3,1.0,3.0,86,0.00,,,0.00,VWS V14.01,2013-07-18 08:15:00,
2013-07-18 03:16:00,63.7,59.3,29.71,North,3,1.0,2.0,86,0.00,,,0.00,VWS V14.01,2013-07-18 08:16:00,
2013-07-18 03:21:00,63.4,59.0,29.72,NW,304,3.0,4.0,86,0.00,,,0.00,VWS V14.01,2013-07-18 08:21:00,
2013-07-18 03:26:00,62.8,58.8,29.73,WNW,300,3.0,6.0,87,0.00,,,0.00,VWS V14.01,2013-07-18 08:26:00,
2013-07-18 03:30:00,62.5,58.8,29.73,WNW,292,1.0,6.0,88,0.00,,,0.00,VWS V14.01,2013-07-18 08:30:00,
2013-07-18 03:31:00,62.5,58.8,29.73,WNW,292,1.0,2.0,88,0.00,,,0.00,VWS V14.01,2013-07-18 08:31:00,
2013-07-18 03:36:00,62.3,58.9,29.73,NNW,336,4.0,4.0,89,0.00,,,0.00,VWS V14.01,2013-07-18 08:36:00,
2013-07-18 03:41:00,62.2,58.8,29.73,NW,323,1.0,4.0,89,0.00,,,0.00,VWS V14.01,2013-07-18 08:41:00,
2013-07-18 03:45:00,62.2,58.8,29.72,NNW,340,2.0,4.0,89,0.00,,,0.00,VWS V14.01,2013-07-18 08:45:00,
2013-07-18 03:46:00,62.2,58.8,29.72,WNW,301,1.0,3.0,89,0.00,,,0.00,VWS V14.01,2013-07-18 08:46:00,
2013-07-18 03:51:00,62.1,58.7,29.72,NW,323,1.0,4.0,89,0.00,,,0.00,VWS V14.01,2013-07-18 08:51:00,
2013-07-18 03:56:00,62.0,58.6,29.72,NW,315,2.0,4.0,89,0.00,,,0.00,VWS V14.01,2013-07-18 08:56:00,
2013-07-18 04:00:00,61.8,58.8,29.72,NW,307,2.0,4.0,90,0.00,,,0.00,VWS V14.01,2013-07-18 09:00:00,
2013-07-18 04:01:00,61.8,58.8,29.72,NW,316,1.0,2.0,90,0.00,,,0.00,VWS V14.01,2013-07-18 09:01:00,
2013-07-18 04:06:00,61.8,58.8,29.72,NW,325,1.0,2.0,90,0.00,,,0.00,VWS V14.01,2013-07-18 09:06:00,
2013-07-18 04:11:00,61.7,58.7,29.72,NNW,332,0.0,2.0,90,0.00,,,0.00,VWS V14.01,2013-07-18 09:11:00,
2013-07-18 04:15:00,61.6,58.5,29.72,NW,321,2.0,2.0,90,0.00,,,0.00,VWS V14.01,2013-07-18 09:15:00,
2013-07-18 04:16:00,61.6,58.5,29.72,NW,321,1.0,2.0,90,0.00,,,0.00,VWS V14.01,2013-07-18 09:16:00,
2013-07-18 04:21:00,61.5,58.8,29.72,NNW,328,1.0,4.0,91,0.00,,,0.00,VWS V14.01,2013-07-18 09:21:00,
2013-07-18 04:26:00,61.4,58.7,29.72,NNW,345,0.0,4.0,91,0.00,,,0.00,VWS V14.01,2013-07-18 09:26:00,
2013-07-18 04:30:00,61.3,58.6,29.71,NW,308,1.0,4.0,91,0.00,,,0.00,VWS V14.01,2013-07-18 09:30:00,
2013-07-18 04:31:00,61.3,58.6,29.71,NW,309,1.0,2.0,91,0.00,,,0.00,VWS V14.01,2013-07-18 09:31:00,
2013-07-18 04:36:00,61.3,58.9,29.72,North,4,0.0,4.0,92,0.00,,,0.00,VWS V14.01,2013-07-18 09:36:00,
2013-07-18 04:41:00,61.2,58.8,29.71,NNW,348,1.0,4.0,92,0.00,,,0.00,VWS V14.01,2013-07-18 09:41:00,
2013-07-18 04:45:00,61.2,58.8,29.71,NNW,343,1.0,4.0,92,0.00,,,0.00,VWS V14.01,2013-07-18 09:45:00,
2013-07-18 04:46:00,61.2,58.8,29.71,NNW,343,1.0,1.0,92,0.00,,,0.00,VWS V14.01,2013-07-18 09:46:00,
2013-07-18 04:51:00,61.1,58.7,29.71,North,351,2.0,4.0,92,0.00,,,0.00,VWS V14.01,2013-07-18 09:51:00,
2013-07-18 04:56:00,61.1,58.7,29.71,NNW,348,1.0,4.0,92,0.00,,,0.00,VWS V14.01,2013-07-18 09:56:00,
2013-07-18 05:00:00,60.9,58.5,29.71,NNW,335,0.0,4.0,92,0.00,,,0.00,VWS V14.01,2013-07-18 10:00:00,
2013-07-18 05:01:00,60.9,58.5,29.71,NNW,339,2.0,2.0,92,0.00,,,0.00,VWS V14.01,2013-07-18 10:01:00,
2013-07-18 05:06:00,60.8,58.4,29.71,NNE,22,2.0,4.0,92,0.00,,,0.00,VWS V14.01,2013-07-18 10:06:00,
2013-07-18 05:11:00,60.8,58.4,29.71,North,352,1.0,5.0,92,0.00,,,0.00,VWS V14.01,2013-07-18 10:11:00,
2013-07-18 05:15:00,60.7,58.6,29.71,NNE,16,3.0,5.0,93,0.00,,,0.00,VWS V14.01,2013-07-18 10:15:00,
2013-07-18 05:16:00,60.7,58.6,29.71,NNW,334,2.0,4.0,93,0.00,,,0.00,VWS V14.01,2013-07-18 10:16:00,
2013-07-18 05:21:00,60.7,58.6,29.71,NNW,334,1.0,4.0,93,0.00,,,0.00,VWS V14.01,2013-07-18 10:21:00,
2013-07-18 05:26:00,60.8,58.7,29.70,North,353,2.0,6.0,93,0.00,,,0.00,VWS V14.01,2013-07-18 10:26:00,
2013-07-18 05:30:00,60.8,58.7,29.70,NNW,340,2.0,6.0,93,0.00,,,0.00,VWS V14.01,2013-07-18 10:30:00,
2013-07-18 05:31:00,60.8,58.7,29.70,North,10,1.0,4.0,93,0.00,,,0.00,VWS V14.01,2013-07-18 10:31:00,
2013-07-18 05:36:00,60.8,58.7,29.71,North,350,2.0,6.0,93,0.00,,,0.00,VWS V14.01,2013-07-18 10:36:00,
2013-07-18 05:41:00,60.9,58.8,29.71,NNW,348,3.0,6.0,93,0.00,,,0.00,VWS V14.01,2013-07-18 10:41:00,
2013-07-18 05:45:00,60.9,58.8,29.71,NNW,332,3.0,9.0,93,0.00,,,0.00,VWS V14.01,2013-07-18 10:45:00,
2013-07-18 05:46:00,60.9,58.8,29.71,NNE,22,4.0,4.0,93,0.00,,,0.00,VWS V14.01,2013-07-18 10:46:00,
2013-07-18 05:51:00,60.9,58.8,29.70,NNW,340,4.0,6.0,93,0.00,,,0.00,VWS V14.01,2013-07-18 10:51:00,
2013-07-18 05:56:00,60.8,58.7,29.70,North,356,2.0,7.0,93,0.00,,,0.00,VWS V14.01,2013-07-18 10:56:00,
2013-07-18 06:00:00,60.8,58.7,29.70,North,358,1.0,7.0,93,0.00,,,0.00,VWS V14.01,2013-07-18 11:00:00,
2013-07-18 06:01:00,60.8,58.7,29.70,North,358,1.0,1.0,93,0.00,,,0.00,VWS V14.01,2013-07-18 11:01:00,
2013-07-18 06:06:00,60.7,58.6,29.70,NNE,19,2.0,5.0,93,0.00,,,0.00,VWS V14.01,2013-07-18 11:06:00,
2013-07-18 06:11:00,60.7,58.6,29.70,North,11,4.0,6.0,93,0.00,,,0.00,VWS V14.01,2013-07-18 11:11:00,
2013-07-18 06:15:00,60.6,58.5,29.70,North,9,2.0,7.0,93,0.00,,,0.00,VWS V14.01,2013-07-18 11:15:00,
2013-07-18 06:16:00,60.6,58.5,29.69,NNE,18,3.0,4.0,93,0.00,,,0.00,VWS V14.01,2013-07-18 11:16:00,
2013-07-18 06:21:00,60.5,58.4,29.70,NNE,23,2.0,6.0,93,0.00,,,0.00,VWS V14.01,2013-07-18 11:21:00,
2013-07-18 06:26:00,60.5,58.4,29.70,NNE,19,3.0,6.0,93,0.00,,,0.00,VWS V14.01,2013-07-18 11:26:00,
2013-07-18 06:30:00,60.5,58.4,29.70,NNE,31,2.0,6.0,93,0.00,,,0.00,VWS V14.01,2013-07-18 11:30:00,
2013-07-18 06:31:00,60.5,58.4,29.70,NNE,19,3.0,3.0,93,0.00,,,0.00,VWS V14.01,2013-07-18 11:31:00,
2013-07-18 06:36:00,60.5,58.4,29.70,NE,49,2.0,6.0,93,0.00,,,0.00,VWS V14.01,2013-07-18 11:36:00,
2013-07-18 06:41:00,60.6,58.5,29.69,NNE,24,3.0,6.0,93,0.00,,,0.00,VWS V14.01,2013-07-18 11:41:00,
2013-07-18 06:45:00,60.6,58.5,29.70,NE,44,1.0,6.0,93,0.00,,,0.00,VWS V14.01,2013-07-18 11:45:00,
2013-07-18 06:46:00,60.7,58.6,29.70,NE,53,2.0,3.0,93,0.00,,,0.00,VWS V14.01,2013-07-18 11:46:00,
2013-07-18 06:51:00,60.8,58.7,29.70,NE,38,1.0,6.0,93,0.00,,,0.00,VWS V14.01,2013-07-18 11:51:00,
2013-07-18 06:56:00,60.9,58.8,29.70,NNE,16,3.0,6.0,93,0.00,,,0.00,VWS V14.01,2013-07-18 11:56:00,
2013-07-18 07:00:00,61.0,58.9,29.70,NE,50,3.0,6.0,93,0.00,,,0.00,VWS V14.01,2013-07-18 12:00:00,
2013-07-18 07:01:00,61.1,59.0,29.70,NE,38,3.0,4.0,93,0.00,,,0.00,VWS V14.01,2013-07-18 12:01:00,
2013-07-18 07:06:00,61.3,59.2,29.69,NE,41,2.0,5.0,93,0.00,,,0.00,VWS V14.01,2013-07-18 12:06:00,
2013-07-18 07:11:00,61.6,59.5,29.69,ENE,64,0.0,6.0,93,0.00,,,0.00,VWS V14.01,2013-07-18 12:11:00,
2013-07-18 07:15:00,61.8,59.4,29.69,ENE,62,1.0,6.0,92,0.00,,,0.00,VWS V14.01,2013-07-18 12:15:00,
2013-07-18 07:16:00,61.9,59.5,29.69,NE,51,3.0,3.0,92,0.00,,,0.00,VWS V14.01,2013-07-18 12:16:00,
2013-07-18 07:21:00,62.2,59.8,29.69,NE,34,4.0,9.0,92,0.00,,,0.00,VWS V14.01,2013-07-18 12:21:00,
2013-07-18 07:26:00,62.4,59.7,29.68,ESE,109,2.0,9.0,91,0.00,,,0.00,VWS V14.01,2013-07-18 12:26:00,
2013-07-18 07:30:00,62.6,59.8,29.68,NE,37,2.0,9.0,91,0.00,,,0.00,VWS V14.01,2013-07-18 12:30:00,
2013-07-18 07:31:00,62.7,60.0,29.68,East,99,2.0,4.0,91,0.00,,,0.00,VWS V14.01,2013-07-18 12:31:00,
2013-07-18 07:36:00,63.0,59.9,29.68,ENE,73,0.0,6.0,90,0.00,,,0.00,VWS V14.01,2013-07-18 12:36:00,
2013-07-18 07:41:00,63.1,60.0,29.69,NE,39,3.0,6.0,90,0.00,,,0.00,VWS V14.01,2013-07-18 12:41:00,
2013-07-18 07:45:00,63.4,60.3,29.69,NE,51,3.0,7.0,90,0.00,,,0.00,VWS V14.01,2013-07-18 12:45:00,
2013-07-18 07:46:00,63.5,60.4,29.69,NE,50,4.0,4.0,90,0.00,,,0.00,VWS V14.01,2013-07-18 12:46:00,
2013-07-18 07:51:00,63.7,60.3,29.68,East,84,2.0,6.0,89,0.00,,,0.00,VWS V14.01,2013-07-18 12:51:00,
2013-07-18 07:56:00,64.1,60.4,29.68,NNE,28,5.0,6.0,88,0.00,,,0.00,VWS V14.01,2013-07-18 12:56:00,
2013-07-18 08:00:00,64.3,60.3,29.68,ESE,107,3.0,6.0,87,0.00,,,0.00,VWS V14.01,2013-07-18 13:00:00,
2013-07-18 08:01:00,64.3,60.3,29.68,ESE,111,3.0,3.0,87,0.00,,,0.00,VWS V14.01,2013-07-18 13:01:00,
2013-07-18 08:06:00,64.5,60.5,29.68,NE,55,2.0,5.0,87,0.00,,,0.00,VWS V14.01,2013-07-18 13:06:00,
2013-07-18 08:11:00,64.8,60.8,29.68,NE,55,3.0,5.0,87,0.00,,,0.00,VWS V14.01,2013-07-18 13:11:00,
2013-07-18 08:15:00,64.9,60.8,29.68,East,92,2.0,5.0,87,0.00,,,0.00,VWS V14.01,2013-07-18 13:15:00,
2013-07-18 08:16:00,65.0,60.9,29.68,ENE,63,3.0,3.0,87,0.00,,,0.00,VWS V14.01,2013-07-18 13:16:00,
2013-07-18 08:21:00,65.2,60.8,29.68,NE,34,3.0,4.0,86,0.00,,,0.00,VWS V14.01,2013-07-18 13:21:00,
2013-07-18 08:26:00,65.6,61.5,29.68,NE,51,2.0,5.0,87,0.00,,,0.00,VWS V14.01,2013-07-18 13:26:00,
2013-07-18 08:30:00,65.9,61.2,29.68,NE,54,1.0,3.0,85,0.00,,,0.00,VWS V14.01,2013-07-18 13:30:00,
2013-07-18 08:36:00,66.2,61.5,29.68,NE,45,2.0,4.0,85,0.00,,,0.00,VWS V14.01,2013-07-18 13:36:00,
2013-07-18 08:40:00,66.4,61.7,29.68,SE,142,2.0,4.0,85,0.00,,,0.00,VWS V14.01,2013-07-18 13:40:00,
2013-07-18 08:45:00,66.7,62.0,29.68,SE,137,2.0,3.0,85,0.00,,,0.00,VWS V14.01,2013-07-18 13:45:00,
2013-07-18 08:51:00,66.8,61.7,29.68,ESE,113,2.0,4.0,84,0.00,,,0.00,VWS V14.01,2013-07-18 13:51:00,
2013-07-18 08:56:00,66.8,61.4,29.68,ENE,59,2.0,4.0,83,0.00,,,0.00,VWS V14.01,2013-07-18 13:56:00,
2013-07-18 09:00:00,67.0,61.6,29.68,NE,55,1.0,4.0,83,0.00,,,0.00,VWS V14.01,2013-07-18 14:00:00,
2013-07-18 09:01:00,67.0,61.6,29.68,ENE,68,1.0,2.0,83,0.00,,,0.00,VWS V14.01,2013-07-18 14:01:00,
2013-07-18 09:06:00,67.3,61.9,29.68,SSE,153,2.0,3.0,83,0.00,,,0.00,VWS V14.01,2013-07-18 14:06:00,
2013-07-18 09:11:00,67.2,61.8,29.68,SSE,153,5.0,5.0,83,0.00,,,0.00,VWS V14.01,2013-07-18 14:11:00,
2013-07-18 09:15:00,67.2,61.4,29.68,SE,125,2.0,5.0,82,0.00,,,0.00,VWS V14.01,2013-07-18 14:15:00,
2013-07-18 09:16:00,67.2,61.4,29.68,SSE,159,5.0,5.0,82,0.00,,,0.00,VWS V14.01,2013-07-18 14:16:00,
2013-07-18 09:21:00,67.4,62.0,29.67,SE,129,5.0,5.0,83,0.00,,,0.00,VWS V14.01,2013-07-18 14:21:00,
2013-07-18 09:26:00,67.7,61.9,29.68,ESE,119,2.0,5.0,82,0.00,,,0.00,VWS V14.01,2013-07-18 14:26:00,
2013-07-18 09:30:00,67.9,62.5,29.68,SW,227,2.0,2.0,83,0.00,,,0.00,VWS V14.01,2013-07-18 14:30:00,
2013-07-18 09:35:00,68.2,62.4,29.68,NW,305,1.0,2.0,82,0.00,,,0.00,VWS V14.01,2013-07-18 14:35:00,
2013-07-18 09:40:00,68.4,62.9,29.68,WNW,296,4.0,6.0,83,0.00,,,0.00,VWS V14.01,2013-07-18 14:40:00,
2013-07-18 09:45:00,68.2,62.7,29.68,WSW,238,1.0,3.0,83,0.00,,,0.00,VWS V14.01,2013-07-18 14:45:00,
2013-07-18 09:50:00,68.0,62.5,29.68,West,278,2.0,5.0,83,0.00,,,0.00,VWS V14.01,2013-07-18 14:50:00,
2013-07-18 09:55:00,67.9,62.5,29.67,WSW,247,1.0,5.0,83,0.00,,,0.00,VWS V14.01,2013-07-18 14:55:00,
2013-07-18 10:00:00,68.3,63.2,29.68,WNW,303,5.0,5.0,84,0.00,,,0.00,VWS V14.01,2013-07-18 15:00:00,
2013-07-18 10:05:00,68.6,63.5,29.67,WSW,242,3.0,7.0,84,0.00,,,0.00,VWS V14.01,2013-07-18 15:05:00,
2013-07-18 10:10:00,68.9,63.4,29.67,SSW,203,1.0,7.0,83,0.00,,,0.00,VWS V14.01,2013-07-18 15:10:00,
2013-07-18 10:15:00,69.4,64.3,29.67,WNW,284,1.0,2.0,84,0.00,,,0.00,VWS V14.01,2013-07-18 15:15:00,
2013-07-18 10:20:00,70.0,64.8,29.67,WSW,253,3.0,4.0,84,0.00,,,0.00,VWS V14.01,2013-07-18 15:20:00,
2013-07-18 10:25:00,70.3,64.4,29.68,WNW,298,4.0,7.0,82,0.00,,,0.00,VWS V14.01,2013-07-18 15:25:00,
2013-07-18 10:30:00,70.6,64.7,29.68,WNW,292,5.0,5.0,82,0.00,,,0.00,VWS V14.01,2013-07-18 15:30:00,
2013-07-18 10:35:00,71.1,65.6,29.68,West,267,5.0,8.0,83,0.00,,,0.00,VWS V14.01,2013-07-18 15:35:00,
2013-07-18 10:40:00,71.0,64.8,29.67,WSW,255,5.0,9.0,81,0.00,,,0.00,VWS V14.01,2013-07-18 15:40:00,
2013-07-18 10:45:00,71.4,65.9,29.67,WNW,303,6.0,6.0,83,0.00,,,0.00,VWS V14.01,2013-07-18 15:45:00,
2013-07-18 10:50:00,71.7,65.1,29.67,WNW,295,9.0,11.0,80,0.00,,,0.00,VWS V14.01,2013-07-18 15:50:00,
2013-07-18 10:55:00,71.8,65.2,29.67,WNW,283,6.0,11.0,80,0.00,,,0.00,VWS V14.01,2013-07-18 15:55:00,
2013-07-18 11:00:00,72.1,65.5,29.67,West,279,6.0,7.0,80,0.00,,,0.00,VWS V14.01,2013-07-18 16:00:00,
2013-07-18 11:05:00,72.7,66.1,29.67,West,261,5.0,9.0,80,0.00,,,0.00,VWS V14.01,2013-07-18 16:05:00,
2013-07-18 11:10:00,72.9,65.9,29.67,WNW,286,4.0,10.0,79,0.00,,,0.00,VWS V14.01,2013-07-18 16:10:00,
2013-07-18 11:15:00,73.0,66.4,29.67,NW,315,7.0,7.0,80,0.00,,,0.00,VWS V14.01,2013-07-18 16:15:00,
2013-07-18 11:20:00,73.1,66.1,29.67,WNW,288,11.0,12.0,79,0.00,,,0.00,VWS V14.01,2013-07-18 16:20:00,
2013-07-18 11:25:00,73.2,66.6,29.67,WNW,290,5.0,12.0,80,0.00,,,0.00,VWS V14.01,2013-07-18 16:25:00,
2013-07-18 11:30:00,73.4,67.1,29.67,WNW,300,7.0,8.0,81,0.00,,,0.00,VWS V14.01,2013-07-18 16:30:00,
2013-07-18 11:35:00,73.5,66.8,29.67,West,280,5.0,10.0,80,0.00,,,0.00,VWS V14.01,2013-07-18 16:35:00,
2013-07-18 11:40:00,73.8,67.1,29.67,West,277,7.0,10.0,80,0.00,,,0.00,VWS V14.01,2013-07-18 16:40:00,
2013-07-18 11:45:00,74.0,67.3,29.67,WNW,299,3.0,7.0,80,0.00,,,0.00,VWS V14.01,2013-07-18 16:45:00,
2013-07-18 11:50:00,74.3,67.6,29.66,NW,319,8.0,9.0,80,0.00,,,0.00,VWS V14.01,2013-07-18 16:50:00,
2013-07-18 11:55:00,74.6,67.2,29.66,WNW,284,3.0,12.0,78,0.00,,,0.00,VWS V14.01,2013-07-18 16:55:00,
2013-07-18 12:00:00,74.9,67.8,29.66,WNW,282,5.0,12.0,79,0.00,,,0.00,VWS V14.01,2013-07-18 17:00:00,
2013-07-18 12:15:00,75.5,68.4,29.66,West,270,4.0,12.0,79,0.00,,,0.00,VWS V14.01,2013-07-18 17:15:00,
2013-07-18 12:30:00,76.2,68.4,29.66,WNW,292,5.0,10.0,77,0.00,,,0.00,VWS V14.01,2013-07-18 17:30:00,
2013-07-18 12:45:00,76.1,68.3,29.65,WNW,292,6.0,11.0,77,0.00,,,0.00,VWS V14.01,2013-07-18 17:45:00,
2013-07-18 13:00:00,77.1,68.8,29.65,WNW,292,5.0,9.0,76,0.00,,,0.00,VWS V14.01,2013-07-18 18:00:00,
2013-07-18 13:15:00,77.4,68.3,29.64,WNW,292,5.0,9.0,74,0.00,,,0.00,VWS V14.01,2013-07-18 18:15:00,
2013-07-18 13:30:00,78.3,69.6,29.63,WNW,292,5.0,10.0,75,0.00,,,0.00,VWS V14.01,2013-07-18 18:30:00,
2013-07-18 13:45:00,79.4,71.1,29.63,WNW,292,4.0,10.0,76,0.00,,,0.00,VWS V14.01,2013-07-18 18:45:00,
2013-07-18 14:00:00,79.3,71.0,29.63,WNW,292,6.0,12.0,76,0.00,,,0.00,VWS V14.01,2013-07-18 19:00:00,
2013-07-18 14:15:00,80.2,71.4,29.62,WNW,292,5.0,12.0,75,0.00,,,0.00,VWS V14.01,2013-07-18 19:15:00,
2013-07-18 14:30:00,80.8,71.2,29.61,WNW,292,7.0,14.0,73,0.00,,,0.00,VWS V14.01,2013-07-18 19:30:00,
2013-07-18 14:45:00,81.4,70.6,29.61,West,270,7.0,13.0,70,0.00,,,0.00,VWS V14.01,2013-07-18 19:45:00,
2013-07-18 15:00:00,81.1,71.1,29.61,WNW,292,9.0,18.0,72,0.00,,,0.00,VWS V14.01,2013-07-18 20:00:00,
2013-07-18 15:15:00,81.8,71.8,29.60,WNW,292,8.0,17.0,72,0.00,,,0.00,VWS V14.01,2013-07-18 20:15:00,
2013-07-18 15:30:00,82.1,71.7,29.60,West,270,9.0,18.0,71,0.00,,,0.00,VWS V14.01,2013-07-18 20:30:00,
2013-07-18 15:45:00,82.2,70.9,29.60,West,270,8.0,16.0,69,0.00,,,0.00,VWS V14.01,2013-07-18 20:45:00,
2013-07-18 16:00:00,82.6,71.3,29.59,West,270,8.0,17.0,69,0.00,,,0.00,VWS V14.01,2013-07-18 21:00:00,
2013-07-18 16:15:00,83.0,70.8,29.59,West,270,7.0,15.0,67,0.00,,,0.00,VWS V14.01,2013-07-18 21:15:00,
2013-07-18 16:30:00,83.4,69.8,29.58,WSW,248,7.0,13.0,64,0.00,,,0.00,VWS V14.01,2013-07-18 21:30:00,
2013-07-18 16:45:00,83.9,69.8,29.58,West,270,7.0,15.0,63,0.00,,,0.00,VWS V14.01,2013-07-18 21:45:00,
2013-07-18 17:00:00,84.0,69.0,29.58,West,270,9.0,18.0,61,0.00,,,0.00,VWS V14.01,2013-07-18 22:00:00,
2013-07-18 17:15:00,84.3,67.8,29.58,WSW,248,9.0,19.0,58,0.00,,,0.00,VWS V14.01,2013-07-18 22:15:00,
2013-07-18 17:30:00,84.4,66.8,29.58,West,270,9.0,18.0,56,0.00,,,0.00,VWS V14.01,2013-07-18 22:30:00,
2013-07-18 17:45:00,84.2,66.7,29.58,West,270,10.0,18.0,56,0.00,,,0.00,VWS V14.01,2013-07-18 22:45:00,
2013-07-18 18:00:00,84.2,67.2,29.57,West,270,8.0,16.0,57,0.00,,,0.00,VWS V14.01,2013-07-18 23:00:00,
2013-07-18 18:15:00,84.0,63.8,29.58,West,270,10.0,23.0,51,0.00,,,0.00,VWS V14.01,2013-07-18 23:15:00,
2013-07-18 18:30:00,84.0,63.8,29.57,West,270,9.0,21.0,51,0.00,,,0.00,VWS V14.01,2013-07-18 23:30:00,
2013-07-18 18:45:00,83.7,60.6,29.57,West,270,11.0,29.0,46,0.00,,,0.00,VWS V14.01,2013-07-18 23:45:00,
2013-07-18 19:00:00,83.8,61.3,29.57,West,270,10.0,20.0,47,0.00,,,0.00,VWS V14.01,2013-07-19 00:00:00,
2013-07-18 19:15:00,83.5,60.4,29.57,West,270,9.0,19.0,46,0.00,,,0.00,VWS V14.01,2013-07-19 00:15:00,
2013-07-18 19:30:00,83.2,60.1,29.57,West,270,9.0,18.0,46,0.00,,,0.00,VWS V14.01,2013-07-19 00:30:00,
2013-07-18 19:45:00,82.3,62.2,29.57,WNW,292,14.0,27.0,51,0.00,,,0.00,VWS V14.01,2013-07-19 00:45:00,
2013-07-18 20:00:00,83.8,61.3,29.57,West,270,10.0,20.0,47,0.00,,,0.00,VWS V14.01,2013-07-19 01:00:00,
2013-07-18 20:14:00,82.3,62.2,29.57,WNW,292,14.0,27.0,51,0.00,,,0.00,VWS V14.01,2013-07-19 01:14:00,
2013-07-18 20:15:00,83.5,60.4,29.57,West,270,9.0,19.0,46,0.00,,,0.00,VWS V14.01,2013-07-19 01:15:00,
2013-07-18 20:19:00,79.9,64.2,29.59,WNW,294,18.0,27.0,59,0.00,,,0.00,VWS V14.01,2013-07-19 01:19:00,
2013-07-18 20:24:00,79.2,64.5,29.59,WNW,294,22.0,27.0,61,0.00,,,0.00,VWS V14.01,2013-07-19 01:24:00,
2013-07-18 20:29:00,78.5,64.7,29.59,West,267,19.0,27.0,63,0.00,,,0.00,VWS V14.01,2013-07-19 01:29:00,
2013-07-18 20:30:00,83.2,60.1,29.57,West,270,9.0,18.0,46,0.00,,,0.00,VWS V14.01,2013-07-19 01:30:00,
2013-07-18 20:34:00,78.0,65.2,29.60,West,278,17.0,26.0,65,0.00,,,0.00,VWS V14.01,2013-07-19 01:34:00,
2013-07-18 20:39:00,77.3,64.9,29.60,West,276,19.0,30.0,66,0.00,,,0.00,VWS V14.01,2013-07-19 01:39:00,
2013-07-18 20:44:00,76.6,65.1,29.61,WNW,296,22.0,30.0,68,0.00,,,0.00,VWS V14.01,2013-07-19 01:44:00,
2013-07-18 20:45:00,82.3,62.2,29.57,WNW,292,14.0,27.0,51,0.00,,,0.00,VWS V14.01,2013-07-19 01:45:00,
2013-07-18 20:49:00,75.9,64.0,29.61,WNW,295,18.0,31.0,67,0.00,,,0.00,VWS V14.01,2013-07-19 01:49:00,
2013-07-18 20:54:00,75.2,62.5,29.62,West,281,23.0,31.0,65,0.00,,,0.00,VWS V14.01,2013-07-19 01:54:00,
2013-07-18 20:59:00,74.8,62.1,29.62,WNW,285,23.0,31.0,65,0.00,,,0.00,VWS V14.01,2013-07-19 01:59:00,
2013-07-18 21:04:00,74.4,61.3,29.62,WNW,302,16.0,22.0,64,0.00,,,0.00,VWS V14.01,2013-07-19 02:04:00,
2013-07-18 21:09:00,74.1,60.6,29.62,West,273,20.0,23.0,63,0.00,,,0.00,VWS V14.01,2013-07-19 02:09:00,
2013-07-18 21:14:00,73.8,60.3,29.63,WNW,300,17.0,23.0,63,0.00,,,0.00,VWS V14.01,2013-07-19 02:14:00,
2013-07-18 21:15:00,80.0,63.8,29.59,WNW,286,19.0,25.0,58,0.00,,,0.00,VWS V14.01,2013-07-19 02:15:00,
2013-07-18 21:19:00,73.5,59.6,29.63,WNW,290,18.0,24.0,62,0.00,,,0.00,VWS V14.01,2013-07-19 02:19:00,
2013-07-18 21:24:00,73.0,59.1,29.63,NW,316,16.0,28.0,62,0.00,,,0.00,VWS V14.01,2013-07-19 02:24:00,
2013-07-18 21:29:00,72.5,58.2,29.64,West,267,18.0,28.0,61,0.00,,,0.00,VWS V14.01,2013-07-19 02:29:00,
2013-07-18 21:30:00,78.3,64.5,29.60,WNW,288,26.0,27.0,63,0.00,,,0.00,VWS V14.01,2013-07-19 02:30:00,
2013-07-18 21:34:00,72.3,58.0,29.64,WNW,295,16.0,21.0,61,0.00,,,0.00,VWS V14.01,2013-07-19 02:34:00,
2013-07-18 21:39:00,71.9,58.0,29.64,WNW,296,13.0,25.0,62,0.00,,,0.00,VWS V14.01,2013-07-19 02:39:00,
2013-07-18 21:44:00,71.5,58.1,29.64,WNW,296,11.0,25.0,63,0.00,,,0.00,VWS V14.01,2013-07-19 02:44:00,
2013-07-18 21:45:00,76.5,65.0,29.61,West,278,13.0,30.0,68,0.00,,,0.00,VWS V14.01,2013-07-19 02:45:00,
2013-07-18 21:49:00,71.2,57.4,29.64,WNW,296,12.0,25.0,62,0.00,,,0.00,VWS V14.01,2013-07-19 02:49:00,
2013-07-18 21:54:00,70.8,56.1,29.65,WNW,286,12.0,25.0,60,0.00,,,0.00,VWS V14.01,2013-07-19 02:54:00,
2013-07-18 21:59:00,70.5,56.3,29.65,WNW,288,11.0,25.0,61,0.00,,,0.00,VWS V14.01,2013-07-19 02:59:00,
2013-07-18 22:00:00,74.7,61.6,29.62,West,277,13.0,31.0,64,0.00,,,0.00,VWS V14.01,2013-07-19 03:00:00,
2013-07-18 22:04:00,70.1,56.4,29.66,NNW,334,10.0,15.0,62,0.00,,,0.00,VWS V14.01,2013-07-19 03:04:00,
2013-07-18 22:09:00,69.6,55.0,29.66,West,274,15.0,20.0,60,0.00,,,0.00,VWS V14.01,2013-07-19 03:09:00,
2013-07-18 22:14:00,69.5,54.4,29.66,WNW,301,11.0,22.0,59,0.00,,,0.00,VWS V14.01,2013-07-19 03:14:00,
2013-07-18 22:15:00,73.7,59.8,29.63,WNW,286,15.0,24.0,62,0.00,,,0.00,VWS V14.01,2013-07-19 03:15:00,
2013-07-18 22:19:00,69.1,54.0,29.67,West,278,19.0,22.0,59,0.00,,,0.00,VWS V14.01,2013-07-19 03:19:00,
2013-07-18 22:24:00,68.8,53.8,29.67,WNW,292,12.0,22.0,59,0.00,,,0.00,VWS V14.01,2013-07-19 03:24:00,
2013-07-18 22:29:00,68.6,53.6,29.67,WNW,292,17.0,26.0,59,0.00,,,0.00,VWS V14.01,2013-07-19 03:29:00,
2013-07-18 22:30:00,72.5,58.2,29.64,WNW,289,21.0,28.0,61,0.00,,,0.00,VWS V14.01,2013-07-19 03:30:00,
2013-07-18 22:34:00,68.3,53.8,29.67,West,273,19.0,26.0,60,0.00,,,0.00,VWS V14.01,2013-07-19 03:34:00,
2013-07-18 22:39:00,68.1,54.0,29.67,WNW,294,15.0,26.0,61,0.00,,,0.00,VWS V14.01,2013-07-19 03:39:00,
2013-07-18 22:44:00,67.7,54.5,29.67,WNW,292,11.0,26.0,63,0.00,,,0.00,VWS V14.01,2013-07-19 03:44:00,
2013-07-18 22:45:00,71.4,58.0,29.64,WNW,282,16.0,25.0,63,0.00,,,0.00,VWS V14.01,2013-07-19 03:45:00,
2013-07-18 22:49:00,67.4,54.7,29.68,WNW,282,12.0,19.0,64,0.00,,,0.00,VWS V14.01,2013-07-19 03:49:00,
2013-07-18 22:54:00,67.2,54.9,29.68,West,275,8.0,20.0,65,0.00,,,0.00,VWS V14.01,2013-07-19 03:54:00,
2013-07-18 22:59:00,67.1,55.2,29.68,NW,319,9.0,25.0,66,0.00,,,0.00,VWS V14.01,2013-07-19 03:59:00,
2013-07-18 23:00:00,70.4,56.2,29.65,West,280,13.0,25.0,61,0.00,,,0.00,VWS V14.01,2013-07-19 04:00:00,
2013-07-18 23:01:00,67.0,55.2,29.68,WNW,286,12.0,13.0,66,0.00,,,0.00,VWS V14.01,2013-07-19 04:01:00,
2013-07-18 23:07:00,66.7,55.7,29.69,West,280,14.0,20.0,68,0.00,,,0.00,VWS V14.01,2013-07-19 04:07:00,
2013-07-18 23:12:00,66.6,56.0,29.69,West,275,12.0,20.0,69,0.00,,,0.00,VWS V14.01,2013-07-19 04:12:00,
2013-07-18 23:15:00,69.4,54.8,29.66,WNW,297,13.0,22.0,60,0.00,,,0.00,VWS V14.01,2013-07-19 04:15:00,
2013-07-18 23:16:00,66.3,56.1,29.69,West,267,10.0,17.0,70,0.00,,,0.00,VWS V14.01,2013-07-19 04:16:00,
2013-07-18 23:21:00,66.1,56.3,29.69,West,273,10.0,17.0,71,0.00,,,0.00,VWS V14.01,2013-07-19 04:21:00,
2013-07-18 23:26:00,65.8,56.4,29.70,WNW,298,13.0,17.0,72,0.00,,,0.00,VWS V14.01,2013-07-19 04:26:00,
2013-07-18 23:30:00,68.5,54.0,29.67,WNW,294,12.0,26.0,60,0.00,,,0.00,VWS V14.01,2013-07-19 04:30:00,
2013-07-18 23:31:00,65.7,56.7,29.70,NW,307,13.0,15.0,73,0.00,,,0.00,VWS V14.01,2013-07-19 04:31:00,
2013-07-18 23:36:00,65.7,56.7,29.70,WNW,291,12.0,16.0,73,0.00,,,0.00,VWS V14.01,2013-07-19 04:36:00,
2013-07-18 23:41:00,65.5,56.9,29.70,WNW,290,12.0,16.0,74,0.00,,,0.00,VWS V14.01,2013-07-19 04:41:00,
2013-07-18 23:45:00,67.6,54.4,29.67,WNW,300,15.0,26.0,63,0.00,,,0.00,VWS V14.01,2013-07-19 04:45:00,
2013-07-18 23:46:00,65.4,57.2,29.70,West,279,9.0,14.0,75,0.00,,,0.00,VWS V14.01,2013-07-19 04:46:00,
2013-07-18 23:51:00,65.2,57.0,29.70,WNW,296,10.0,18.0,75,0.00,,,0.00,VWS V14.01,2013-07-19 04:51:00,
2013-07-18 23:56:00,65.0,57.2,29.70,West,277,12.0,18.0,76,0.00,,,0.00,VWS V14.01,2013-07-19 04:56:00,